[[{"header":{"parameterUnit":"m.s-1","parameterCategory":2,"la1":30.2992,"la2":30.254,"lo1":-89.0895,"lo2":-89.0443,"dy":0.0025,"dx":0.0025,"nx":19,"ny":19,"refTime":"2026-05-05T09:00:00:Z","depth":"0","parameterNumber":2,"parameterNumberName":"U-component_of_CURRENTS"},"data":[0,0,0,0.1967,0.1969,0.2036,0.2037,0.209,0.209,0,0,0,0,0,0,0,0,0,0,0,0.1935,0.1936,0.1967,0.1969,0.2036,0.2037,0.2089,0.209,0,0,0,0,0,0,0,0,0,0,0,0.1935,0.1936,0.1936,0.1969,0.2036,0.2037,0.2089,0.2046,0,0,0,0,0,0,0,0,0,0,0.1984,0.1957,0.1936,0.1936,0.1969,0.2036,0.2037,0.2044,0.2049,0.205,0,0.2058,0,0.208,0.2093,0.2093,0,0,0,0.1966,0.1953,0.1977,0.1936,0.197,0.2036,0.2005,0.2047,0.2052,0.2056,0.2059,0.2062,0.208,0.2093,0.2093,0.2197,0.2198,0,0,0.1963,0.1943,0.1974,0.198,0.1984,0.2003,0.2007,0.205,0.205,0.2059,0.2063,0.2081,0.2094,0.2094,0.2197,0.2198,0,0,0,0.1953,0.194,0.1964,0.1977,0.1995,0.2005,0.201,0.2048,0.2057,0.2064,0.2082,0.2094,0.2094,0.2196,0.2197,0.2297,0,0,0,0.1951,0.1935,0.1962,0.195,0.1994,0.2027,0.2006,0.2054,0.206,0.2082,0.2094,0.2095,0.2195,0.2196,0.2292,0.2353,0,0,0,0.1933,0.1934,0.1942,0.1949,0.1981,0.2027,0.2038,0.2056,0.2071,0.2093,0.2095,0.2194,0.2196,0.2288,0.2345,0.2416,0,0,0,0.191,0.1905,0.1941,0.1947,0.1981,0.2027,0.2039,0.2061,0.2077,0.2094,0.2195,0.2197,0.2287,0.2341,0.2411,0.2374,0.2394,0,0,0.1887,0.1901,0.1907,0.1942,0.1985,0.2018,0.2095,0.2113,0.2114,0.2176,0.2178,0.2294,0.2345,0.2414,0.2484,0.2501,0,0,0,0.189,0.19,0.1916,0.1956,0.1999,0.2098,0.2118,0.2168,0.2251,0.2136,0.2305,0.2334,0.2375,0.2342,0.2356,0.238,0.2206,0.2206,0.2205,0.1839,0.1885,0.1925,0.1998,0.2043,0.215,0.2243,0.2323,0.2291,0.236,0.2423,0.2558,0.2524,0.2534,0.256,0.2422,0.2423,0.2423,0.2423,0.1866,0.1913,0.1982,0.204,0.2146,0.2226,0.2393,0.2432,0.2599,0.2543,0.2577,0.2459,0.2555,0.2577,0.243,0.2429,0.2428,0.2427,0.2427,0.1887,0.1917,0.1964,0.2065,0.2183,0.2293,0.2453,0.2581,0.2683,0.2766,0.2705,0.2702,0.2714,0.277,0.2771,0.2771,0.2772,0.2772,0.2773,0.1897,0.1947,0.1988,0.2086,0.214,0.2263,0.2499,0.2621,0.2779,0.2831,0.283,0.2771,0.2663,0.2642,0.2782,0.278,0.2779,0.2778,0.2777,0.1941,0.1931,0.1986,0.2026,0.2127,0.2185,0.2408,0.2633,0.2803,0.2866,0.2927,0.2859,0.2826,0.2812,0.2794,0.2966,0.2966,0.2966,0.2966,0.1942,0.1949,0.1979,0.2003,0.2057,0.2148,0.2274,0.2528,0.2838,0.2971,0.3022,0.2931,0.2922,0.2889,0.2874,0.2855,0.3038,0.3038,0.3039,0.1974,0.1971,0.1972,0.1963,0.2005,0.2071,0.2132,0.2344,0.2821,0.3046,0.3076,0.3073,0.294,0.2924,0.2862,0.2839,0.2802,0,0]},{"header":{"parameterUnit":"m.s-1","parameterCategory":2,"la1":30.2992,"la2":30.254,"lo1":-89.0895,"lo2":-89.0443,"dy":0.0025,"dx":0.0025,"nx":19,"ny":19,"refTime":"2026-05-05T09:00:00:Z","depth":"0","parameterNumber":3,"parameterNumberName":"V-component_of_CURRENTS"},"data":[0,0,0,0.0193,0.0192,0.0128,0.0128,0.0031,0.0031,0,0,0,0,0,0,0,0,0,0,0,0.0214,0.0214,0.0193,0.0192,0.0129,0.0128,0.0031,0.0031,0,0,0,0,0,0,0,0,0,0,0,0.0214,0.0214,0.0214,0.0191,0.0129,0.0128,0.0032,0.0081,0,0,0,0,0,0,0,0,0,0,0.0143,0.0173,0.0214,0.0214,0.0191,0.0129,0.0128,0.0083,0.0078,0.0059,0,0.0055,0,0.0045,0.0025,0.0024,0,0,0,0.0181,0.0178,0.0159,0.0214,0.0191,0.0129,0.0154,0.008,0.0074,0.0051,0.0054,0.005,0.0043,0.0024,0.0024,0.0071,0.0072,0,0,0.0184,0.0202,0.0163,0.0155,0.0182,0.0156,0.0152,0.0076,0.0074,0.0054,0.0048,0.0042,0.0024,0.0023,0.007,0.0072,0,0,0,0.0202,0.0204,0.0187,0.0159,0.0151,0.0155,0.015,0.0078,0.0071,0.0047,0.0041,0.0023,0.0022,0.0069,0.0071,0.0268,0,0,0,0.0203,0.0215,0.0189,0.0198,0.0153,0.0117,0.0153,0.0077,0.0068,0.0041,0.0023,0.0021,0.0068,0.007,0.026,0.0381,0,0,0,0.0216,0.0216,0.0211,0.0199,0.0176,0.0118,0.0107,0.0074,0.0064,0.0024,0.0021,0.0067,0.0069,0.0253,0.0367,0.0451,0,0,0,0.0232,0.0247,0.0212,0.0229,0.0177,0.0181,0.0107,0.009,0.0064,0.0023,0.0068,0.007,0.0251,0.0358,0.0443,0.0495,0.0537,0,0,0.0265,0.0251,0.0264,0.0231,0.0269,0.0188,0.0252,0.0176,0.0104,0.0086,0.0087,0.0263,0.0366,0.0449,0.0656,0.0694,0,0,0,0.0284,0.0311,0.0308,0.0323,0.0296,0.0346,0.0261,0.0257,0.0267,0.0103,0.0264,0.0324,0.037,0.0383,0.0414,0.0249,0.0083,0.0083,0.0083,0.0376,0.0373,0.044,0.0454,0.0461,0.0449,0.0497,0.0486,0.0367,0.0422,0.0485,0.069,0.0708,0.0731,0.0561,0.0465,0.0466,0.0466,0.0467,0.0525,0.0597,0.0601,0.0678,0.0695,0.0747,0.0761,0.0725,0.0809,0.0682,0.0714,0.0593,0.0776,0.0582,0.048,0.0477,0.0476,0.0475,0.0474,0.0661,0.07,0.0748,0.0873,0.0973,0.0965,0.1106,0.1072,0.1012,0.1082,0.1017,0.1012,0.0839,0.1064,0.1065,0.1066,0.1067,0.1067,0.1068,0.0793,0.0841,0.0967,0.1078,0.1166,0.126,0.1321,0.1366,0.1345,0.1267,0.1265,0.0906,0.0871,0.0844,0.1083,0.108,0.1078,0.1077,0.1076,0.0968,0.0973,0.1169,0.1276,0.1462,0.1593,0.1634,0.1698,0.1699,0.1698,0.1262,0.134,0.1278,0.1251,0.1232,0.1557,0.1557,0.1557,0.1557,0.1062,0.1085,0.1333,0.1516,0.1687,0.1752,0.1991,0.2038,0.1752,0.1538,0.1367,0.1214,0.1202,0.1123,0.1099,0.107,0.1347,0.1346,0.1345,0.1167,0.1235,0.1419,0.1587,0.1784,0.1905,0.214,0.2349,0.1803,0.1314,0.1137,0.1146,0.0889,0.0882,0.0719,0.0698,0.0635,0,0]}],[{"header":{"parameterUnit":"m.s-1","parameterCategory":2,"la1":30.2992,"la2":30.254,"lo1":-89.0895,"lo2":-89.0443,"dy":0.0025,"dx":0.0025,"nx":19,"ny":19,"refTime":"2026-05-05T09:00:00:Z","depth":"2","parameterNumber":2,"parameterNumberName":"U-component_of_CURRENTS"},"data":[0,0,0,0.1956,0.1958,0.2026,0.2026,0.2083,0.2083,0,0,0,0,0,0,0,0,0,0,0,0.1925,0.1926,0.1956,0.1958,0.2026,0.2026,0.2082,0.2083,0,0,0,0,0,0,0,0,0,0,0,0.1925,0.1926,0.1926,0.1958,0.2026,0.2026,0.2082,0.2038,0,0,0,0,0,0,0,0,0,0,0.1976,0.1949,0.1926,0.1926,0.1959,0.2026,0.2026,0.2037,0.2041,0.2043,0,0.2052,0,0.2072,0.2086,0.2086,0,0,0,0.1957,0.1945,0.1969,0.1926,0.1959,0.2026,0.1995,0.2039,0.2044,0.2049,0.2053,0.2055,0.2073,0.2086,0.2087,0.2189,0.219,0,0,0.1953,0.1934,0.1965,0.1972,0.1974,0.1993,0.1997,0.2043,0.2043,0.2053,0.2057,0.2074,0.2087,0.2087,0.2188,0.2189,0,0,0,0.1943,0.1931,0.1954,0.1969,0.1986,0.1995,0.2,0.204,0.205,0.2058,0.2075,0.2087,0.2088,0.2188,0.2189,0.2284,0,0,0,0.1941,0.1926,0.1952,0.1941,0.1985,0.2018,0.1996,0.2046,0.2053,0.2074,0.2087,0.2088,0.2187,0.2188,0.228,0.235,0,0,0,0.1923,0.1924,0.1932,0.194,0.1971,0.2018,0.2029,0.2048,0.2063,0.2086,0.2088,0.2186,0.2188,0.2276,0.2342,0.2386,0,0,0,0.1901,0.1895,0.1931,0.1937,0.1971,0.2016,0.2029,0.2053,0.2071,0.2087,0.2187,0.2189,0.2275,0.2337,0.2381,0.2288,0.2301,0,0,0.1877,0.1891,0.1897,0.1932,0.1975,0.2006,0.2082,0.2104,0.2106,0.2167,0.217,0.2281,0.2342,0.2385,0.2392,0.2403,0,0,0,0.188,0.189,0.1906,0.1947,0.1988,0.2088,0.2107,0.2156,0.2239,0.2127,0.2291,0.2327,0.2351,0.2285,0.2294,0.2197,0.2197,0.2197,0.2197,0.183,0.1875,0.1917,0.1989,0.2032,0.2139,0.2232,0.2312,0.2277,0.2344,0.2412,0.2524,0.2455,0.246,0.2403,0.2403,0.2404,0.2404,0.2404,0.1856,0.1906,0.1974,0.2033,0.214,0.2219,0.2382,0.242,0.2577,0.2528,0.2544,0.2398,0.2475,0.2412,0.2411,0.2409,0.2409,0.2408,0.2408,0.1876,0.1909,0.1957,0.2061,0.2183,0.2291,0.2442,0.2568,0.266,0.2736,0.2616,0.2612,0.258,0.2718,0.2719,0.2719,0.272,0.272,0.272,0.189,0.1942,0.1986,0.2089,0.2146,0.2264,0.249,0.2593,0.2705,0.2739,0.2737,0.263,0.2619,0.2599,0.2728,0.2727,0.2726,0.2725,0.2725,0.1935,0.193,0.1988,0.2031,0.2136,0.2183,0.2388,0.254,0.2682,0.2705,0.2726,0.2723,0.2683,0.2673,0.2653,0.279,0.279,0.279,0.279,0.194,0.1949,0.1988,0.2015,0.2069,0.2144,0.2181,0.2271,0.2466,0.2496,0.2508,0.2389,0.2394,0.233,0.2327,0.2297,0.2341,0.234,0.2339,0.1974,0.1972,0.198,0.1977,0.2022,0.2056,0.1996,0.1922,0.2045,0.2315,0.2362,0.2773,0.2626,0.2623,0.2543,0.2533,0.2491,0,0]},{"header":{"parameterUnit":"m.s-1","parameterCategory":2,"la1":30.2992,"la2":30.254,"lo1":-89.0895,"lo2":-89.0443,"dy":0.0025,"dx":0.0025,"nx":19,"ny":19,"refTime":"2026-05-05T09:00:00:Z","depth":"2","parameterNumber":3,"parameterNumberName":"V-component_of_CURRENTS"},"data":[0,0,0,0.0121,0.012,0.0057,0.0057,-0.0042,-0.0043,0,0,0,0,0,0,0,0,0,0,0,0.0142,0.0142,0.0121,0.012,0.0057,0.0057,-0.0042,-0.0043,0,0,0,0,0,0,0,0,0,0,0,0.0142,0.0142,0.0142,0.0119,0.0057,0.0057,-0.0042,0.0007,0,0,0,0,0,0,0,0,0,0,0.0069,0.0101,0.0142,0.0142,0.0119,0.0057,0.0057,0.001,0.0004,-0.0016,0,-0.0019,0,-0.003,-0.0049,-0.005,0,0,0,0.0109,0.0106,0.0086,0.0142,0.0119,0.0057,0.0082,0.0007,0.0,-0.0024,-0.0021,-0.0024,-0.0031,-0.005,-0.005,-0.0022,-0.0021,0,0,0.0112,0.013,0.009,0.0082,0.011,0.0084,0.0081,0.0003,0.0001,-0.0021,-0.0027,-0.0033,-0.0051,-0.0051,-0.0023,-0.0022,0,0,0,0.013,0.0133,0.0115,0.0086,0.0078,0.0083,0.0078,0.0005,-0.0002,-0.0028,-0.0034,-0.0051,-0.0052,-0.0024,-0.0023,0.0154,0,0,0,0.0131,0.0143,0.0117,0.0126,0.008,0.0045,0.0082,0.0003,-0.0006,-0.0033,-0.0051,-0.0053,-0.0025,-0.0023,0.0147,0.0274,0,0,0,0.0144,0.0145,0.0139,0.0128,0.0105,0.0046,0.0034,0.0001,-0.0009,-0.005,-0.0053,-0.0026,-0.0024,0.0141,0.0261,0.0276,0,0,0,0.0161,0.0174,0.014,0.0156,0.0106,0.0104,0.0035,0.0017,-0.001,-0.0052,-0.0025,-0.0023,0.0139,0.0253,0.0269,0.0161,0.0183,0,0,0.0191,0.0178,0.0189,0.0157,0.0188,0.0111,0.0161,0.0089,0.0022,-0.0006,-0.0006,0.015,0.026,0.0274,0.0298,0.0315,0,0,0,0.0208,0.0231,0.0228,0.0238,0.021,0.0249,0.0165,0.0157,0.0157,0.0018,0.0148,0.0213,0.0215,0.0136,0.0151,-0.0011,-0.0012,-0.0012,-0.0012,0.0293,0.0287,0.0343,0.035,0.0351,0.0337,0.0372,0.0352,0.0243,0.0288,0.0354,0.0493,0.0412,0.0421,0.0322,0.0323,0.0323,0.0324,0.0324,0.0418,0.0478,0.0479,0.0544,0.0558,0.06,0.0598,0.0564,0.0616,0.0524,0.0513,0.0326,0.0447,0.0338,0.0336,0.0334,0.0332,0.0331,0.033,0.0527,0.0561,0.0608,0.0719,0.0813,0.0804,0.0897,0.0883,0.0798,0.0849,0.0647,0.0642,0.0587,0.0796,0.0797,0.0797,0.0798,0.0798,0.0799,0.0636,0.0681,0.0805,0.0909,0.0996,0.1073,0.1106,0.1078,0.0961,0.0867,0.0862,0.065,0.0635,0.0612,0.0809,0.0807,0.0806,0.0805,0.0804,0.0789,0.0809,0.0953,0.1062,0.1255,0.1289,0.1276,0.1109,0.1108,0.0986,0.0825,0.0821,0.0742,0.0726,0.0704,0.0913,0.0913,0.0913,0.0913,0.0888,0.0909,0.1073,0.1221,0.1372,0.1383,0.1273,0.1035,0.0873,0.0753,0.076,0.0628,0.0627,0.0533,0.0521,0.0489,0.0644,0.0643,0.0643,0.1004,0.0985,0.1104,0.1209,0.1385,0.1409,0.1154,0.086,0.0655,0.0632,0.0713,0.0895,0.0712,0.0707,0.0562,0.0544,0.0492,0,0]}],[{"header":{"parameterUnit":"m.s-1","parameterCategory":2,"la1":30.2992,"la2":30.254,"lo1":-89.0895,"lo2":-89.0443,"dy":0.0025,"dx":0.0025,"nx":19,"ny":19,"refTime":"2026-05-05T09:00:00:Z","depth":"4","parameterNumber":2,"parameterNumberName":"U-component_of_CURRENTS"},"data":[0,0,0,0.1076,0.1079,0.123,0.123,0.1367,0.1368,0,0,0,0,0,0,0,0,0,0,0,0.1035,0.1037,0.1076,0.108,0.123,0.123,0.1367,0.1368,0,0,0,0,0,0,0,0,0,0,0,0.1035,0.1037,0.1039,0.108,0.1229,0.123,0.1366,0.1265,0,0,0,0,0,0,0,0,0,0,0.1125,0.1095,0.1036,0.1039,0.1081,0.1229,0.123,0.1261,0.1271,0.1285,0,0.1331,0,0.1351,0.1377,0.1377,0,0,0,0.1072,0.1086,0.1131,0.1039,0.1083,0.1229,0.116,0.1267,0.1279,0.1299,0.1333,0.1338,0.1354,0.1377,0.1378,0.1532,0.1533,0,0,0.1064,0.1053,0.1123,0.114,0.115,0.1155,0.1164,0.1275,0.1295,0.1333,0.1342,0.1356,0.1378,0.1379,0.1531,0.1532,0,0,0,0.1045,0.1047,0.1091,0.1134,0.1165,0.116,0.117,0.129,0.1308,0.1343,0.1358,0.1379,0.1381,0.153,0.1532,0.1613,0,0,0,0.104,0.1037,0.1087,0.1081,0.1164,0.1236,0.1183,0.13,0.1313,0.1357,0.1379,0.1382,0.153,0.1531,0.1609,0.1611,0,0,0,0.1023,0.1034,0.1062,0.108,0.1148,0.1235,0.1258,0.1303,0.1322,0.1377,0.1382,0.1529,0.1531,0.1605,0.1606,0.1611,0,0,0,0.0991,0.1036,0.1062,0.1117,0.1147,0.1242,0.1258,0.134,0.1393,0.138,0.153,0.1531,0.1604,0.1603,0.1608,0.1368,0,0,0,0.1019,0.104,0.1068,0.1095,0.1179,0.1218,0.132,0.14,0.142,0.1486,0.1491,0.161,0.1606,0.161,0.1472,0,0,0,0,0.1057,0.1085,0.1114,0.1176,0.1243,0.1331,0.1403,0.1453,0.1556,0.1462,0.1622,0.1616,0.1616,0.147,0.154,0.154,0.1539,0.1539,0.1539,0.1062,0.1102,0.1162,0.1231,0.131,0.1422,0.15,0.1583,0.1602,0.167,0.1694,0.1763,0.1616,0.1722,0.1722,0.1723,0.1723,0.1723,0.1724,0.1084,0.1101,0.1201,0.1275,0.1381,0.149,0.1636,0.1682,0.1778,0.1781,0.1778,0.1581,0.1732,0.173,0.1729,0.1728,0.1727,0.1727,0.1727,0.1051,0.1062,0.1143,0.1254,0.1392,0.1528,0.1646,0.1754,0.1836,0.1863,0.1677,0.1797,0.1774,0.1866,0.1866,0.1866,0.1867,0.1867,0.1867,0.0958,0.1041,0.1064,0.1209,0.1274,0.1426,0.1624,0.1677,0.1776,0.1716,0.1876,0.1809,0.1805,0.1781,0.1868,0.1868,0.1867,0.1867,0.1867,0.0828,0.0904,0.0919,0.0963,0.1088,0.1204,0.1423,0.1533,0.1538,0.1525,0.1624,0.1635,0.1567,0.1567,0.1533,0.1549,0.1546,0.1543,0,0.0718,0.076,0.0774,0.0789,0.0845,0.1046,0.108,0.1206,0.1339,0.131,0.1503,0.1609,0.1618,0.1535,0.1531,0.1486,0,0,0,0.0589,0.0635,0.06,0.0683,0.0733,0.089,0.1094,0.1099,0.1344,0.1311,0.1472,0.1491,0.1652,0.1871,0.1792,0.1787,0.1744,0,0]},{"header":{"parameterUnit":"m.s-1","parameterCategory":2,"la1":30.2992,"la2":30.254,"lo1":-89.0895,"lo2":-89.0443,"dy":0.0025,"dx":0.0025,"nx":19,"ny":19,"refTime":"2026-05-05T09:00:00:Z","depth":"4","parameterNumber":3,"parameterNumberName":"V-component_of_CURRENTS"},"data":[0,0,0,0.0012,0.0011,-0.004,-0.004,-0.0126,-0.0127,0,0,0,0,0,0,0,0,0,0,0,0.0029,0.0028,0.0012,0.0011,-0.004,-0.004,-0.0126,-0.0127,0,0,0,0,0,0,0,0,0,0,0,0.0029,0.0029,0.0028,0.0011,-0.004,-0.004,-0.0126,-0.0083,0,0,0,0,0,0,0,0,0,0,-0.0032,-0.0006,0.0029,0.0028,0.0011,-0.0039,-0.004,-0.0081,-0.0086,-0.0107,0,-0.0114,0,-0.0121,-0.0132,-0.0133,0,0,0,0.0006,-0.0002,-0.002,0.0028,0.001,-0.0039,-0.0018,-0.0083,-0.0089,-0.0114,-0.0115,-0.0118,-0.0122,-0.0133,-0.0133,-0.0217,-0.0217,0,0,0.0009,0.0022,-0.0016,-0.0024,-0.0002,-0.0016,-0.002,-0.0087,-0.0089,-0.0115,-0.012,-0.0124,-0.0134,-0.0134,-0.0216,-0.0217,0,0,0,0.002,0.0024,0.0008,-0.002,-0.0027,-0.0018,-0.0021,-0.0086,-0.0093,-0.0121,-0.0125,-0.0134,-0.0135,-0.0216,-0.0217,-0.0193,0,0,0,0.0022,0.0031,0.0009,0.0017,-0.0026,-0.0053,-0.0019,-0.0089,-0.0096,-0.0124,-0.0134,-0.0136,-0.0216,-0.0216,-0.0193,-0.0211,0,0,0,0.0031,0.0032,0.0026,0.0017,-0.0003,-0.0052,-0.0063,-0.009,-0.0099,-0.0133,-0.0136,-0.0216,-0.0216,-0.0193,-0.0211,-0.0216,0,0,0,0.0046,0.0047,0.0026,0.0027,-0.0002,-0.0025,-0.0062,-0.0079,-0.0103,-0.0135,-0.0216,-0.0217,-0.0193,-0.021,-0.0215,-0.0112,0,0,0,0.0058,0.0049,0.005,0.003,0.0009,-0.0019,-0.0052,-0.0095,-0.0125,-0.0196,-0.0197,-0.0193,-0.0211,-0.0215,-0.015,0,0,0,0,0.0061,0.0048,0.0043,0.0023,0.0007,-0.0033,-0.0072,-0.0107,-0.0165,-0.0143,-0.0213,-0.0226,-0.0228,-0.0168,-0.022,-0.0219,-0.0219,-0.0219,-0.0219,0.0057,0.0048,0.0025,-0.0,-0.0001,-0.005,-0.0089,-0.0151,-0.0164,-0.0191,-0.0219,-0.023,-0.0165,-0.022,-0.022,-0.022,-0.022,-0.0219,-0.0219,0.0014,-0.0027,-0.0014,-0.0044,-0.0061,-0.0078,-0.0124,-0.0148,-0.0232,-0.0236,-0.0238,-0.0164,-0.0218,-0.0218,-0.0218,-0.0218,-0.0219,-0.0219,-0.0219,-0.0062,-0.0081,-0.0086,-0.0115,-0.012,-0.0114,-0.0089,-0.0154,-0.0214,-0.024,-0.0172,-0.0231,-0.0218,-0.0226,-0.0226,-0.0226,-0.0226,-0.0226,-0.0226,-0.015,-0.0148,-0.0155,-0.0197,-0.0176,-0.0133,-0.011,-0.0099,-0.0159,-0.0166,-0.0235,-0.0233,-0.0233,-0.022,-0.0228,-0.0227,-0.0227,-0.0227,-0.0227,-0.0233,-0.0213,-0.0215,-0.0209,-0.0165,-0.0136,-0.0103,-0.0023,-0.0063,-0.0082,-0.0125,-0.013,-0.0137,-0.0139,-0.0124,-0.0103,-0.0101,-0.01,0,-0.0259,-0.0268,-0.018,-0.0121,-0.0092,-0.0082,-0.001,0.0017,-0.0037,-0.004,-0.0112,-0.0164,-0.0165,-0.0175,-0.0176,-0.0158,0,0,0,-0.0254,-0.0225,-0.0142,-0.0074,-0.0018,0.0033,0.0036,0.0071,-0.0053,0.0019,-0.0068,-0.0076,-0.0116,-0.0232,-0.0255,-0.0254,-0.0236,0,0]}]]